Lid_Strength_Index
12 15 17 14 12 12 12 14 15 13 11 10 11 11 10 9 9 9 9 8 8 7 6 6 6 5 5 5 5 5 4 2 2 2 3 3 3 3 3 2 2 1 1 1
14 16 13 12 12 13 13 15 15 13 12 13 13 14 12 11 11 9 8 8 8 8 8 7 7 6 6 5 5 5 4 2 2 2 3 3 4 4 3 3 2 1 2 2
15 13 11 12 14 13 14 14 14 14 11 11 13 14 12 11 11 10 9 9 8 9 8 8 7 6 6 5 4 3 2 2 2 3 3 4 4 4 4 4 4 3 2 2
13 11 12 13 14 14 16 12 12 13 14 16 13 18 13 11 11 11 11 9 9 9 8 7 6 6 6 5 3 2 2 2 3 3 4 3 5 5 5 5 4 3 2 2
12 12 13 14 14 12 15 12 13 13 15 16 15 17 16 13 13 12 10 9 9 9 8 8 7 6 6 3 3 2 2 3 3 4 4 5 5 5 5 4 4 3 2 1
11 9 10 11 11 11 11 13 14 14 16 20 16 16 17 14 13 11 10 10 9 9 9 8 7 7 4 3 3 3 3 4 4 4 4 4 5 5 5 4 4 3 2 2
10 10 10 9 12 11 13 17 20 20 21 20 15 17 16 13 12 11 11 10 10 9 9 8 7 5 4 4 4 4 4 5 4 4 4 5 5 4 4 4 3 3 3 3
16 16 11 9 11 13 15 16 19 21 21 20 14 18 16 11 10 9 9 10 9 10 10 9 7 4 4 4 4 4 5 5 5 5 5 4 4 3 3 3 3 3 3 3
15 14 9 8 9 9 13 16 15 18 17 20 18 16 13 11 10 10 10 10 10 10 9 9 6 5 4 4 5 5 5 5 5 5 4 4 4 3 3 3 3 3 3 2
11 15 10 9 8 9 12 11 17 18 20 22 19 18 17 14 12 10 10 10 10 9 8 9 5 5 4 4 5 5 5 5 4 4 3 3 3 3 3 3 3 2 2 1
10 13 13 10 12 14 13 14 14 16 18 21 21 19 14 12 12 11 11 10 9 7 7 6 5 4 4 4 4 5 5 4 4 3 3 3 3 3 2 3 2 2 2 2
10 13 16 13 9 9 11 13 13 17 18 18 20 19 12 12 12 11 11 9 8 7 7 5 5 5 4 4 4 4 4 4 4 3 3 3 3 3 3 2 2 2 2 2
10 14 17 15 12 10 13 11 12 13 14 18 20 19 12 12 12 11 10 10 9 7 7 6 5 5 5 4 4 4 4 4 4 4 3 3 3 3 3 2 2 2 2 2
8 12 15 17 15 12 14 12 11 13 17 17 17 16 13 11 11 10 10 9 10 7 7 6 5 5 5 4 4 3 4 4 4 3 3 3 3 3 3 2 2 2 2 2
10 14 13 13 12 12 13 13 12 13 14 17 15 16 14 11 11 11 11 9 7 7 7 6 6 5 5 4 4 3 4 4 3 2 3 3 3 3 2 2 2 2 2 1
10 14 13 14 12 12 14 12 12 12 12 14 15 16 12 10 8 9 10 8 7 7 7 6 5 5 5 4 4 3 3 3 2 3 3 2 2 2 2 2 2 2 2 2
12 13 15 16 12 13 16 13 13 12 11 12 16 14 10 10 9 8 8 7 7 7 6 6 5 5 4 4 3 4 4 3 2 3 2 2 2 2 2 2 2 2 3 2
12 13 13 17 15 21 12 10 11 12 10 10 11 11 9 9 8 7 6 7 7 6 6 5 5 4 4 3 3 4 4 3 3 3 2 2 2 2 2 2 3 3 3 3
9 11 15 17 18 14 12 11 12 13 13 10 11 9 8 8 8 8 6 6 6 6 5 5 4 4 3 3 4 4 4 3 3 3 3 2 2 2 2 3 3 3 3 3
10 11 14 16 19 20 14 11 10 9 16 9 9 9 9 8 13 10 7 7 6 5 4 4 4 3 3 4 4 4 4 3 3 3 2 2 2 2 2 3 3 3 3 3
14 14 16 16 17 15 12 11 10 16 15 8 8 8 8 10 10 9 9 7 5 5 4 4 4 4 4 4 4 4 4 4 3 2 2 2 2 2 2 3 3 3 3 3
15 16 16 15 17 19 9 11 13 10 8 7 7 7 8 8 8 9 9 7 5 5 4 4 4 4 5 4 4 4 4 3 2 2 2 2 2 2 2 3 3 3 3 4
15 12 14 14 14 9 8 10 9 7 8 7 7 6 7 8 9 9 9 7 5 5 4 4 4 5 5 4 4 5 4 3 3 2 3 3 2 2 2 3 3 3 3 3
11 8 12 12 10 9 8 7 6 6 6 7 6 6 7 8 9 10 9 7 6 5 4 4 5 6 6 5 4 3 4 3 3 3 3 3 3 3 2 3 2 3 3 3
10 9 11 11 9 8 8 7 7 6 5 7 6 6 7 7 8 9 8 6 5 4 4 4 5 5 5 5 5 4 4 3 3 3 3 3 3 3 3 3 3 2 2 2
9 10 12 13 8 9 10 8 7 7 6 7 7 7 7 7 8 8 7 7 5 5 4 4 4 4 5 5 5 5 4 3 3 3 3 3 3 3 2 4 4 12 11 9